Location: Drummondville
(45.8830°N, 72.4830°W)
Time: 16:48:29
(UTC-05:00)

Envisat - Pass Details

Date: 12 November 2017
Orbit: 764 x 766 km, 98.2° (Epoch: 22 November)

Event Time Altitude Azimuth Distance (km) Brightness Sun altitude
Exits shadow 19:49:23 14° 340° (NNW) 2,061 5.5 -36.1°
Drops below altitude 10° 19:50:02 10° 342° (NNW) 2,312 5.8 -36.3°
Sets 19:52:22 0° 345° (NNW) 3,242 6.6 -36.6°
